Location: Bucquoy
(50.1391°N, 2.7097°E)
Time: 23:31:29
(UTC+00:00)

Cosmos 1461 - Pass Details

Date: 06 May 2021
Orbit: 510 x 653 km, 65.0° (Epoch: 21 June)

Event Time Altitude Azimuth Distance (km) Brightness Sun altitude
Exits shadow 00:15:18 37° 113° (ESE) 1,012 4.0 -23.0°
Drops below altitude 10° 00:19:21 10° 53° (NE) 2,040 6.3 -22.9°
Sets 00:21:45 0° 45° (NE) 2,936 7.4 -22.8°
